Van Nuys, CA

2:12 AM PDT on May 24, 2017 (GMT -0700)
Van Nuys

Weather History for KVNY - December, 2013

Change the Weather History Date:

Thursday, December 19, 2013

  Actual Average Record
Temperature  
Mean Temperature 51 °F -  
Max Temperature 54 °F 64 °F 81 °F (1999)
Min Temperature 48 °F 43 °F 33 °F (2008)
Degree Days  
Heating Degree Days 14    
Growing Degree Days 1 (Base 50)    
Moisture  
Dew Point 44 °F    
Average Humidity 76    
Maximum Humidity 87    
Minimum Humidity 56    
Precipitation  
Precipitation 0.32 in - - ()
Sea Level Pressure  
Sea Level Pressure 29.76 in    
Wind  
Wind Speed 6 mph (SE)    
Max Wind Speed 10 mph    
Max Gust Speed -    
Visibility 8 miles    
Events Rain    
Averages and records for this station are not official NWS values.
T = Trace of Precipitation, MM = Missing Value Source: NWS Daily Summary

Daily Weather History Graph

Daily Weather History Graph

Search for Another Location

Airport or City:

Trip Planner

Search our weather history database for the weather conditions in past years. The results will help you decide how hot, cold, wet, or windy it might be!

Date:

Astronomy

Dec. 19, 2013 Rise Set
Actual Time 6:55 AM PST 4:47 PM PST
Civil Twilight 6:27 AM PST 5:15 PM PST
Nautical Twilight 5:55 AM PST 5:46 PM PST
Astronomical Twilight 5:25 AM PST 6:17 PM PST
Moon 7:12 PM PST (12/19) 8:21 AM PST (12/19)
Length of Visible Light 10h 48m
Length of Day
9h 52m
Waning Gibbous, 95% of the Moon is Illuminated
Dec 19
Waning Gibbous
Dec 25
Last Quarter
Jan 1
New
Jan 7
First Quarter
Jan 15
Full

Hourly Weather History & Observations

Time (PST) Temp. Dew Point Humidity Pressure Visibility Wind Dir Wind Speed Gust Speed Precip Events Conditions
12:51 AM 54.0 °F 48.0 °F 80% 29.81 in 9.0 mi South 8.1 mph - N/A   Overcast
1:51 AM 54.0 °F 46.9 °F 77% 29.79 in 10.0 mi South 6.9 mph - N/A   Overcast
2:51 AM 54.0 °F 46.0 °F 75% 29.79 in 10.0 mi South 5.8 mph - N/A   Overcast
3:15 AM 53.6 °F 46.4 °F 77% 29.81 in 10.0 mi South 5.8 mph - N/A   Overcast
3:39 AM 53.6 °F 46.4 °F 77% 29.80 in 10.0 mi South 8.1 mph - N/A   Overcast
3:51 AM 53.1 °F 46.0 °F 77% 29.77 in 10.0 mi South 9.2 mph - N/A   Mostly Cloudy
4:51 AM 53.1 °F 45.0 °F 74% 29.76 in 10.0 mi South 6.9 mph - N/A   Overcast
5:51 AM 53.1 °F 46.0 °F 77% 29.75 in 10.0 mi SE 4.6 mph - N/A   Overcast
6:13 AM 51.8 °F 46.4 °F 82% 29.76 in 10.0 mi SE 4.6 mph - N/A   Overcast
6:51 AM 52.0 °F 46.0 °F 80% 29.76 in 10.0 mi SE 8.1 mph - N/A   Overcast
7:51 AM 52.0 °F 45.0 °F 77% 29.77 in 10.0 mi ESE 5.8 mph - N/A   Overcast
8:51 AM 53.1 °F 45.0 °F 74% 29.77 in 10.0 mi SSE 8.1 mph - 0.00 in   Overcast
9:51 AM 53.1 °F 45.0 °F 74% 29.78 in 10.0 mi SSE 8.1 mph - N/A   Overcast
10:13 AM 51.8 °F 46.4 °F 82% 29.78 in 3.0 mi SSE 8.1 mph - 0.08 in Rain Rain
10:20 AM 51.8 °F 46.4 °F 82% 29.78 in 3.0 mi SW 5.8 mph - 0.08 in Rain Rain
10:51 AM 51.1 °F 45.0 °F 80% 29.76 in 3.0 mi SSW 3.5 mph - 0.12 in Rain Rain
10:58 AM 51.8 °F 44.6 °F 76% 29.76 in 10.0 mi South 4.6 mph - 0.00 in Rain Rain
11:16 AM 50.0 °F 44.6 °F 82% 29.75 in 5.0 mi South 4.6 mph - 0.01 in Rain Rain
11:47 AM 50.0 °F 44.6 °F 82% 29.74 in 4.0 mi SSE 3.5 mph - 0.05 in Rain Rain
11:51 AM 51.1 °F 45.0 °F 80% 29.73 in 4.0 mi Calm Calm - 0.05 in Rain Rain
12:51 PM 50.0 °F 45.0 °F 83% 29.71 in 5.0 mi ENE 3.5 mph - 0.11 in   Haze
1:14 PM 50.0 °F 46.4 °F 87% 29.71 in 4.0 mi ENE 6.9 mph - 0.04 in   Overcast
1:51 PM 52.0 °F 45.0 °F 77% 29.70 in 10.0 mi NE 8.1 mph - 0.04 in   Overcast
2:51 PM 52.0 °F 43.0 °F 71% 29.70 in 10.0 mi ENE 10.4 mph - N/A   Overcast
3:51 PM 52.0 °F 43.0 °F 71% 29.70 in 10.0 mi ENE 9.2 mph - N/A   Mostly Cloudy
4:51 PM 51.1 °F 44.1 °F 77% 29.72 in 10.0 mi NE 3.5 mph - N/A   Scattered Clouds
5:51 PM 51.1 °F 42.1 °F 71% 29.74 in 10.0 mi Calm Calm - N/A   Overcast
6:51 PM 50.0 °F 42.1 °F 74% 29.74 in 10.0 mi Calm Calm - N/A   Mostly Cloudy
7:51 PM 50.0 °F 41.0 °F 71% 29.76 in 10.0 mi Calm Calm - N/A   Overcast
8:51 PM 48.9 °F 41.0 °F 74% 29.75 in 10.0 mi North 6.9 mph - N/A   Scattered Clouds
9:51 PM 51.1 °F 39.0 °F 63% 29.76 in 10.0 mi NNW 9.2 mph - N/A   Clear
10:51 PM 51.1 °F 37.9 °F 61% 29.78 in 10.0 mi NNW 10.4 mph - N/A   Clear
11:51 PM 51.1 °F 36.0 °F 56% 29.78 in 10.0 mi NNW 8.1 mph - N/A   Clear